Terminal Aerodrome Forecast
Issued by NWS

Home | Current Version | Previous Version | Text Only | Print | Product List | Glossary On
Versions: 1 2 3 4 5 6 7 8 9 10 11 12 13 14 15 16 17 18 19 20 21 22 23 24 25 26 27 28 29 30 31 32 33 34 35 36 37 38 39 40
000
FTUS45 KPSR 011600 AAD
TAFPHX
TAF AMD
KPHX 011651Z 0117/0212 11003KT 1/4SM FG VV002
      TEMPO 0118/0119 1SM BR BKN005
     FM011900 10003KT 5SM BR SCT010
     FM012000 VRB03KT P6SM SKC
     FM012200 25005KT P6SM SCT060
     FM020400 10003KT P6SM SKC=

USA.gov is the U.S. government's official web portal to all federal, state and local government web resources and services.